When you browse on this site, cookies collect data to enhance your experience and personalize the content and advertising you see.
Visit our Privacy Policy to learn more. By continuing to use the site, you agree to this use of cookies and data.
  • In Portugal
  • List of Countries
  • For 7 days
  • Water Temperature
  • Satellite Maps
  • Weather Map
  • Weather Widgets
  • user-avatar
    Login

    Hourly Weather Kiustendil

    Today, 19 March, Tuesday

    Time Temperature Precipitation Wind Pressure Humidity
    00:00 +4°C° 0 mm 1 mps 622 mmHg 83%
    01:00 +4°C° 0 mm 1 mps 622 mmHg 84%
    02:00 +4°C° 0 mm 1 mps 622 mmHg 86%
    03:00 +3°C° 0 mm 1 mps 622 mmHg 87%
    04:00 +3°C° 0 mm 1 mps 622 mmHg 89%
    05:00 +3°C° 0 mm 1 mps 623 mmHg 86%
    06:00 +3°C° 0 mm 1 mps 623 mmHg 84%
    07:00 +3°C° 0 mm 1 mps 623 mmHg 82%
    08:00 +5°C° 0 mm 1 mps 624 mmHg 73%
    09:00 +7°C° 0 mm 1 mps 625 mmHg 65%
    10:00 +9°C° 0 mm 1 mps 625 mmHg 56%
    11:00 +10°C° 0.1 mm 1 mps 626 mmHg 52%
    12:00 +11°C° 0.1 mm 1 mps 626 mmHg 48%
    13:00 +12°C° 0.1 mm 1 mps 626 mmHg 44%
    14:00 +11°C° 0.3 mm 1 mps 626 mmHg 45%
    15:00 +10°C° 0.3 mm 2 mps 625 mmHg 46%
    16:00 +10°C° 0.3 mm 2 mps 625 mmHg 46%
    17:00 +8°C° 0.2 mm 2 mps 625 mmHg 54%
    18:00 +6°C° 0.2 mm 2 mps 625 mmHg 61%
    19:00 +4°C° 0.2 mm 2 mps 625 mmHg 69%
    20:00 +4°C° 0.3 mm 2 mps 625 mmHg 72%
    21:00 +3°C° 0.3 mm 2 mps 625 mmHg 75%
    22:00 +3°C° 0.3 mm 2 mps 625 mmHg 77%
    23:00 +3°C° 0.2 mm 2 mps 626 mmHg 79%

    Tomorrow, 20 March, Wednesday

    Time Temperature Precipitation Wind Pressure Humidity
    00:00 +2°C° 0.2 mm 2 mps 626 mmHg 80%
    01:00 +3°C° 0.2 mm 1 mps 626 mmHg 81%
    02:00 +2°C° 0 mm 2 mps 626 mmHg 83%
    03:00 +1°C° 0 mm 2 mps 626 mmHg 85%
    04:00 +1°C° 0 mm 2 mps 626 mmHg 86%
    05:00 +1°C° 0 mm 2 mps 626 mmHg 84%
    06:00 +1°C° 0 mm 2 mps 627 mmHg 81%
    07:00 +1°C° 0 mm 2 mps 627 mmHg 79%
    08:00 +3°C° 0 mm 2 mps 628 mmHg 72%
    09:00 +5°C° 0 mm 2 mps 629 mmHg 65%
    10:00 +6°C° 0 mm 2 mps 629 mmHg 58%
    11:00 +7°C° 0 mm 3 mps 630 mmHg 54%
    12:00 +8°C° 0 mm 3 mps 630 mmHg 49%
    13:00 +9°C° 0 mm 3 mps 630 mmHg 44%
    14:00 +8°C° 0 mm 4 mps 630 mmHg 46%
    15:00 +7°C° 0 mm 4 mps 630 mmHg 48%
    16:00 +7°C° 0 mm 5 mps 630 mmHg 50%
    17:00 +5°C° 0 mm 4 mps 630 mmHg 59%
    18:00 +4°C° 0 mm 3 mps 629 mmHg 67%
    19:00 +2°C° 0 mm 3 mps 629 mmHg 76%
    20:00 +2°C° 0 mm 2 mps 629 mmHg 80%
    21:00 +2°C° 0 mm 2 mps 630 mmHg 84%
    22:00 +1°C° 0 mm 2 mps 630 mmHg 88%
    23:00 +1°C° 0 mm 2 mps 630 mmHg 90%

    Day after tomorrow, 21 March, Thursday

    Time Temperature Precipitation Wind Pressure Humidity
    00:00 -1°C° 0 mm 2 mps 630 mmHg 91%
    01:00 -1°C° 0 mm 2 mps 630 mmHg 93%
    02:00 -1°C° 0 mm 2 mps 630 mmHg 93%
    03:00 -1°C° 0 mm 2 mps 630 mmHg 93%
    04:00 -1°C° 0 mm 2 mps 630 mmHg 93%
    05:00 -1°C° 0 mm 2 mps 630 mmHg 91%
    06:00 +1°C° 0 mm 2 mps 630 mmHg 88%
    07:00 +1°C° 0 mm 2 mps 631 mmHg 86%
    08:00 +2°C° 0 mm 2 mps 631 mmHg 79%
    09:00 +3°C° 0 mm 2 mps 632 mmHg 72%
    10:00 +4°C° 0 mm 2 mps 632 mmHg 65%
    11:00 +4°C° 0 mm 3 mps 632 mmHg 61%
    12:00 +5°C° 0 mm 3 mps 632 mmHg 58%
    13:00 +5°C° 0 mm 3 mps 632 mmHg 55%
    14:00 +5°C° 0 mm 3 mps 632 mmHg 55%
    15:00 +5°C° 0 mm 3 mps 631 mmHg 55%
    16:00 +5°C° 0 mm 3 mps 631 mmHg 55%
    17:00 +4°C° 0 mm 3 mps 631 mmHg 62%
    18:00 +3°C° 0 mm 2 mps 630 mmHg 69%
    19:00 +2°C° 0 mm 2 mps 630 mmHg 76%
    20:00 +1°C° 0 mm 2 mps 630 mmHg 79%
    21:00 +1°C° 0 mm 2 mps 630 mmHg 82%
    22:00 -1°C° 0 mm 2 mps 630 mmHg 86%
    23:00 -1°C° 0 mm 2 mps 630 mmHg 87%

    22 March, Friday

    Time Temperature Precipitation Wind Pressure Humidity
    00:00 0°C° 0 mm 1 mps 630 mmHg 89%
    01:00 0°C° 0 mm 1 mps 630 mmHg 90%
    02:00 0°C° 0 mm 1 mps 630 mmHg 91%
    03:00 -1°C° 0 mm 1 mps 630 mmHg 92%
    04:00 -1°C° 0 mm 1 mps 630 mmHg 93%
    05:00 0°C° 0 mm 1 mps 630 mmHg 91%
    06:00 0°C° 0 mm 1 mps 630 mmHg 88%
    07:00 +1°C° 0 mm 1 mps 631 mmHg 86%
    08:00 +3°C° 0 mm 1 mps 631 mmHg 74%
    09:00 +5°C° 0 mm 1 mps 632 mmHg 63%
    10:00 +7°C° 0 mm 1 mps 633 mmHg 52%
    11:00 +8°C° 0 mm 1 mps 632 mmHg 48%
    12:00 +8°C° 0 mm 2 mps 632 mmHg 43%
    13:00 +9°C° 0 mm 2 mps 632 mmHg 39%
    14:00 +9°C° 0 mm 2 mps 632 mmHg 39%
    15:00 +9°C° 0 mm 2 mps 632 mmHg 39%
    16:00 +9°C° 0 mm 2 mps 631 mmHg 39%
    17:00 +7°C° 0 mm 2 mps 631 mmHg 45%
    18:00 +5°C° 0 mm 2 mps 631 mmHg 52%
    19:00 +4°C° 0 mm 1 mps 630 mmHg 58%
    20:00 +4°C° 0 mm 1 mps 630 mmHg 61%
    21:00 +3°C° 0 mm 1 mps 630 mmHg 64%
    22:00 +3°C° 0 mm 1 mps 630 mmHg 67%
    23:00 +2°C° 0 mm 1 mps 630 mmHg 70%

    23 March, Saturday

    Time Temperature Precipitation Wind Pressure Humidity
    00:00 +2°C° 0 mm 1 mps 630 mmHg 73%
    01:00 +1°C° 0 mm 1 mps 629 mmHg 76%
    02:00 +1°C° 0 mm 1 mps 629 mmHg 78%
    03:00 +1°C° 0 mm 1 mps 629 mmHg 80%
    04:00 0°C° 0 mm 1 mps 629 mmHg 83%
    05:00 +1°C° 0 mm 1 mps 630 mmHg 80%
    06:00 +2°C° 0 mm 1 mps 630 mmHg 76%
    07:00 +3°C° 0 mm 1 mps 630 mmHg 73%
    08:00 +5°C° 0 mm 1 mps 631 mmHg 63%
    09:00 +7°C° 0 mm 1 mps 632 mmHg 52%
    10:00 +9°C° 0 mm 1 mps 632 mmHg 42%
    11:00 +10°C° 0 mm 1 mps 632 mmHg 39%
    12:00 +11°C° 0 mm 1 mps 632 mmHg 37%
    13:00 +12°C° 0 mm 1 mps 632 mmHg 34%
    14:00 +12°C° 0 mm 1 mps 632 mmHg 34%
    15:00 +12°C° 0 mm 1 mps 632 mmHg 35%
    16:00 +12°C° 0 mm 1 mps 631 mmHg 35%
    17:00 +10°C° 0 mm 1 mps 631 mmHg 41%
    18:00 +7°C° 0 mm 0 mps 630 mmHg 46%
    19:00 +5°C° 0 mm 0 mps 630 mmHg 52%
    20:00 +4°C° 0 mm 0 mps 629 mmHg 55%
    21:00 +4°C° 0 mm 0 mps 629 mmHg 58%
    22:00 +3°C° 0 mm 0 mps 629 mmHg 61%
    23:00 +3°C° 0 mm 0 mps 629 mmHg 64%

    24 March, Sunday

    Time Temperature Precipitation Wind Pressure Humidity
    00:00 +2°C° 0 mm 0 mps 629 mmHg 68%
    01:00 +2°C° 0 mm 0 mps 628 mmHg 71%
    02:00 +2°C° 0 mm 0 mps 628 mmHg 73%
    03:00 +1°C° 0 mm 0 mps 628 mmHg 74%
    04:00 +1°C° 0 mm 0 mps 628 mmHg 76%
    05:00 +2°C° 0 mm 0 mps 628 mmHg 73%
    06:00 +3°C° 0 mm 0 mps 628 mmHg 69%
    07:00 +4°C° 0 mm 0 mps 629 mmHg 66%
    08:00 +6°C° 0 mm 0 mps 629 mmHg 58%
    09:00 +8°C° 0 mm 0 mps 630 mmHg 50%
    10:00 +12°C° 0 mm 1 mps 631 mmHg 42%
    11:00 +12°C° 0 mm 1 mps 630 mmHg 40%
    12:00 +13°C° 0 mm 1 mps 630 mmHg 37%
    13:00 +14°C° 0 mm 1 mps 630 mmHg 35%
    14:00 +14°C° 0 mm 1 mps 629 mmHg 36%
    15:00 +13°C° 0 mm 1 mps 629 mmHg 36%
    16:00 +13°C° 0 mm 1 mps 628 mmHg 37%
    17:00 +11°C° 0 mm 1 mps 627 mmHg 42%
    18:00 +9°C° 0 mm 1 mps 627 mmHg 47%
    19:00 +8°C° 0 mm 1 mps 626 mmHg 52%
    20:00 +6°C° 0 mm 0 mps 626 mmHg 55%
    21:00 +5°C° 0 mm 0 mps 625 mmHg 59%
    22:00 +5°C° 0 mm 0 mps 625 mmHg 62%
    23:00 +4°C° 0 mm 0 mps 625 mmHg 64%
    Show more